When you browse on this site, cookies collect data to enhance your experience and personalize the content and advertising you see.
Visit our Privacy Policy to learn more. By continuing to use the site, you agree to this use of cookies and data.
  • In Schweiz
  • Länderverzeichnis
  • Für 7 Tage
  • Wassertemperatur
  • Satellitenkarten
  • Wetterkarte
  • Widgets
  • user-avatar
    Anmelden

    Stündliche Wetter Löhne

    Heute, 26 Mai, Sonntag

    Zeit Temperatur Niederschläge Wind Luftdruck Luftfeuchtigkeit
    00:00 +10°C° 0 mm 1 m/S 755 mmHg 91%
    01:00 +9°C° 0 mm 2 m/S 755 mmHg 92%
    02:00 +9°C° 0 mm 2 m/S 755 mmHg 93%
    03:00 +9°C° 0 mm 2 m/S 754 mmHg 94%
    04:00 +9°C° 0 mm 3 m/S 754 mmHg 94%
    05:00 +10°C° 0 mm 4 m/S 754 mmHg 91%
    06:00 +11°C° 0 mm 4 m/S 754 mmHg 87%
    07:00 +13°C° 0 mm 5 m/S 753 mmHg 84%
    08:00 +14°C° 0 mm 6 m/S 753 mmHg 78%
    09:00 +16°C° 0 mm 6 m/S 753 mmHg 72%
    10:00 +17°C° 0 mm 6 m/S 752 mmHg 66%
    11:00 +18°C° 0 mm 7 m/S 752 mmHg 66%
    12:00 +18°C° 0 mm 7 m/S 752 mmHg 66%
    13:00 +20°C° 0 mm 7 m/S 751 mmHg 66%
    14:00 +20°C° 0.1 mm 6 m/S 751 mmHg 70%
    15:00 +19°C° 0.1 mm 6 m/S 751 mmHg 74%
    16:00 +19°C° 0.1 mm 5 m/S 750 mmHg 78%
    17:00 +19°C° 0 mm 5 m/S 750 mmHg 79%
    18:00 +19°C° 0 mm 5 m/S 750 mmHg 80%
    19:00 +19°C° 0 mm 5 m/S 749 mmHg 81%
    20:00 +17°C° 0 mm 5 m/S 749 mmHg 82%
    21:00 +16°C° 0 mm 5 m/S 749 mmHg 84%
    22:00 +15°C° 0 mm 5 m/S 749 mmHg 86%
    23:00 +15°C° 0.3 mm 5 m/S 749 mmHg 87%

    Morgen, 27 Mai, Montag

    Zeit Temperatur Niederschläge Wind Luftdruck Luftfeuchtigkeit
    00:00 +14°C° 0.3 mm 5 m/S 749 mmHg 89%
    01:00 +14°C° 0.3 mm 5 m/S 749 mmHg 91%
    02:00 +14°C° 0.8 mm 5 m/S 749 mmHg 93%
    03:00 +14°C° 0.8 mm 4 m/S 749 mmHg 95%
    04:00 +13°C° 0.8 mm 4 m/S 748 mmHg 96%
    05:00 +13°C° 0.2 mm 4 m/S 749 mmHg 94%
    06:00 +13°C° 0.2 mm 4 m/S 749 mmHg 93%
    07:00 +13°C° 0.2 mm 4 m/S 749 mmHg 91%
    08:00 +14°C° 0 mm 4 m/S 749 mmHg 83%
    09:00 +15°C° 0 mm 5 m/S 750 mmHg 75%
    10:00 +16°C° 0 mm 5 m/S 750 mmHg 68%
    11:00 +16°C° 0 mm 5 m/S 750 mmHg 66%
    12:00 +17°C° 0 mm 5 m/S 750 mmHg 64%
    13:00 +17°C° 0 mm 5 m/S 750 mmHg 62%
    14:00 +17°C° 0 mm 5 m/S 750 mmHg 62%
    15:00 +17°C° 0 mm 5 m/S 750 mmHg 62%
    16:00 +17°C° 0 mm 5 m/S 749 mmHg 61%
    17:00 +17°C° 0 mm 4 m/S 749 mmHg 66%
    18:00 +16°C° 0 mm 3 m/S 750 mmHg 70%
    19:00 +15°C° 0 mm 2 m/S 750 mmHg 74%
    20:00 +14°C° 0 mm 2 m/S 750 mmHg 77%
    21:00 +13°C° 0 mm 2 m/S 750 mmHg 80%
    22:00 +12°C° 0 mm 1 m/S 750 mmHg 83%
    23:00 +11°C° 0 mm 1 m/S 750 mmHg 85%

    übermorgen, 28 Mai, Dienstag

    Zeit Temperatur Niederschläge Wind Luftdruck Luftfeuchtigkeit
    00:00 +9°C° 0 mm 0 m/S 749 mmHg 87%
    01:00 +8°C° 0 mm 0 m/S 749 mmHg 89%
    02:00 +8°C° 0 mm 0 m/S 749 mmHg 90%
    03:00 +9°C° 0 mm 1 m/S 749 mmHg 91%
    04:00 +9°C° 0 mm 1 m/S 749 mmHg 92%
    05:00 +9°C° 0 mm 2 m/S 749 mmHg 88%
    06:00 +10°C° 0 mm 2 m/S 748 mmHg 84%
    07:00 +13°C° 0 mm 2 m/S 748 mmHg 81%
    08:00 +13°C° 0.2 mm 3 m/S 748 mmHg 79%
    09:00 +14°C° 0.2 mm 3 m/S 748 mmHg 77%
    10:00 +16°C° 0.2 mm 3 m/S 747 mmHg 75%
    11:00 +16°C° 0.9 mm 3 m/S 747 mmHg 75%
    12:00 +16°C° 0.9 mm 3 m/S 747 mmHg 75%
    13:00 +17°C° 0.9 mm 2 m/S 747 mmHg 75%
    14:00 +17°C° 0.7 mm 2 m/S 747 mmHg 74%
    15:00 +17°C° 0.7 mm 2 m/S 747 mmHg 74%
    16:00 +17°C° 0.7 mm 3 m/S 747 mmHg 73%
    17:00 +16°C° 0.8 mm 2 m/S 747 mmHg 78%
    18:00 +15°C° 0.8 mm 2 m/S 747 mmHg 84%
    19:00 +15°C° 0.8 mm 2 m/S 748 mmHg 89%
    20:00 +14°C° 0.9 mm 2 m/S 748 mmHg 92%
    21:00 +11°C° 0.9 mm 3 m/S 749 mmHg 94%
    22:00 +10°C° 0.9 mm 3 m/S 749 mmHg 97%
    23:00 +10°C° 0.5 mm 3 m/S 750 mmHg 97%

    29 Mai, Mittwoch

    Zeit Temperatur Niederschläge Wind Luftdruck Luftfeuchtigkeit
    00:00 +10°C° 0.5 mm 4 m/S 750 mmHg 97%
    01:00 +10°C° 0.5 mm 4 m/S 751 mmHg 97%
    02:00 +8°C° 0 mm 4 m/S 751 mmHg 96%
    03:00 +8°C° 0 mm 4 m/S 752 mmHg 96%
    04:00 +7°C° 0 mm 4 m/S 752 mmHg 96%
    05:00 +7°C° 0 mm 4 m/S 753 mmHg 94%
    06:00 +7°C° 0 mm 4 m/S 753 mmHg 92%
    07:00 +8°C° 0 mm 3 m/S 754 mmHg 90%
    08:00 +9°C° 0 mm 3 m/S 754 mmHg 82%
    09:00 +11°C° 0 mm 3 m/S 755 mmHg 74%
    10:00 +12°C° 0 mm 3 m/S 756 mmHg 66%
    11:00 +13°C° 0 mm 3 m/S 756 mmHg 64%
    12:00 +13°C° 0 mm 3 m/S 756 mmHg 62%
    13:00 +14°C° 0 mm 3 m/S 757 mmHg 61%
    14:00 +14°C° 0 mm 3 m/S 757 mmHg 62%
    15:00 +14°C° 0 mm 3 m/S 757 mmHg 63%
    16:00 +14°C° 0 mm 3 m/S 757 mmHg 64%
    17:00 +13°C° 0 mm 3 m/S 757 mmHg 67%
    18:00 +14°C° 0 mm 2 m/S 757 mmHg 71%
    19:00 +13°C° 0 mm 2 m/S 758 mmHg 75%
    20:00 +10°C° 0 mm 2 m/S 758 mmHg 79%
    21:00 +10°C° 0 mm 1 m/S 758 mmHg 83%
    22:00 +8°C° 0 mm 1 m/S 759 mmHg 87%
    23:00 +8°C° 0 mm 1 m/S 759 mmHg 88%

    30 Mai, Donnerstag

    Zeit Temperatur Niederschläge Wind Luftdruck Luftfeuchtigkeit
    00:00 +7°C° 0 mm 1 m/S 759 mmHg 88%
    01:00 +7°C° 0 mm 1 m/S 759 mmHg 89%
    02:00 +7°C° 0 mm 1 m/S 759 mmHg 90%
    03:00 +7°C° 0 mm 1 m/S 759 mmHg 90%
    04:00 +6°C° 0 mm 1 m/S 759 mmHg 91%
    05:00 +8°C° 0 mm 1 m/S 759 mmHg 87%
    06:00 +9°C° 0 mm 2 m/S 759 mmHg 84%
    07:00 +12°C° 0 mm 2 m/S 760 mmHg 80%
    08:00 +12°C° 0 mm 3 m/S 759 mmHg 74%
    09:00 +14°C° 0 mm 3 m/S 759 mmHg 69%
    10:00 +15°C° 0 mm 4 m/S 759 mmHg 63%
    11:00 +17°C° 0 mm 4 m/S 759 mmHg 61%
    12:00 +17°C° 0 mm 5 m/S 759 mmHg 59%
    13:00 +17°C° 0 mm 6 m/S 759 mmHg 58%
    14:00 +16°C° 0.1 mm 5 m/S 759 mmHg 64%
    15:00 +17°C° 0.1 mm 4 m/S 759 mmHg 71%
    16:00 +16°C° 0.1 mm 3 m/S 759 mmHg 78%
    17:00 +14°C° 0.1 mm 3 m/S 759 mmHg 82%
    18:00 +13°C° 0.1 mm 3 m/S 759 mmHg 86%
    19:00 +13°C° 0.1 mm 2 m/S 759 mmHg 89%
    20:00 +13°C° 1.1 mm 2 m/S 759 mmHg 92%
    21:00 +12°C° 1.1 mm 1 m/S 759 mmHg 94%
    22:00 +11°C° 1.1 mm 1 m/S 759 mmHg 97%
    23:00 +12°C° 0.3 mm 1 m/S 759 mmHg 97%

    31 Mai, Freitag

    Zeit Temperatur Niederschläge Wind Luftdruck Luftfeuchtigkeit
    00:00 +12°C° 0.3 mm 2 m/S 759 mmHg 97%
    01:00 +11°C° 0.3 mm 3 m/S 759 mmHg 96%
    02:00 +11°C° 0.6 mm 3 m/S 759 mmHg 97%
    03:00 +12°C° 0.6 mm 3 m/S 759 mmHg 97%
    04:00 +12°C° 0.6 mm 3 m/S 759 mmHg 98%
    05:00 +12°C° 0.3 mm 3 m/S 759 mmHg 97%
    06:00 +11°C° 0.3 mm 3 m/S 760 mmHg 97%
    07:00 +10°C° 0.3 mm 3 m/S 760 mmHg 96%
    08:00 +11°C° 0 mm 3 m/S 761 mmHg 92%
    09:00 +12°C° 0 mm 3 m/S 761 mmHg 88%
    10:00 +13°C° 0 mm 3 m/S 761 mmHg 84%
    11:00 +15°C° 0 mm 2 m/S 762 mmHg 80%
    12:00 +15°C° 0 mm 2 m/S 762 mmHg 77%
    13:00 +16°C° 0 mm 1 m/S 762 mmHg 74%
    14:00 +16°C° 0 mm 1 m/S 762 mmHg 74%
    15:00 +18°C° 0 mm 1 m/S 762 mmHg 74%
    16:00 +16°C° 0 mm 0 m/S 762 mmHg 73%
    17:00 +15°C° 0.5 mm 0 m/S 762 mmHg 79%
    18:00 +15°C° 0.5 mm 1 m/S 761 mmHg 86%
    19:00 +15°C° 0.5 mm 1 m/S 761 mmHg 92%
    20:00 +14°C° 0.4 mm 1 m/S 762 mmHg 93%
    21:00 +14°C° 0.4 mm 1 m/S 762 mmHg 95%
    22:00 +14°C° 0.4 mm 1 m/S 762 mmHg 96%
    23:00 +14°C° 0 mm 2 m/S 762 mmHg 97%
    Mehr zeigen